Flag for Nigeria Weather past 2 weeks in Enugu, Nigeria

Now
75 °F

Thunderstorms. Passing clouds.


Feels Like: 74 °F
Forecast: 73 / 83 °F
Wind: 6 mph from West

Location: Malabo/Fernando Poo

Current Time: Sep 24, 2014 at 4:26:53 AM

Latest Report: Sep 24, 2014 at 4:00 AM


Visibility: N/A

Pressure: 29.89 "Hg

Humidity: 94%

Dew point: 73 °F

Location of EnuguLocation

Historic Weather in Enugu — Graph

°F

Enugu temperature yesterday

Maximum temperature yesterday: 84 °F (at 2:00 PM)
Minimum temperature yesterday: 75 °F (at 7:00 AM)
Average temperature yesterday: 78 °F

Past Weeks' High & Low Weather Summary

 TemperatureHumidityPressure
High84 °F (Sep 11, 1:00 PM)100% (Sep 9, 3:00 AM)30.04 "Hg (Sep 9, 3:00 AM)
Low72 °F (Sep 14, 12:00 AM)70% (Sep 11, 1:00 PM)29.83 "Hg (Sep 10, 5:00 PM)
Average78 °F88%29.92 "Hg
* Reported Sep 9 3:00 AM — Sep 24 3:00 AM, Enugu, Weather by CustomWeather, © 2014

Note: Actual official high and low records may vary slightly from our data, if they occured in-between our weather recording intervals... More about our weather records

Advertising

Enugu weather history for previous 24 hours

 ConditionsComfort  
Time TempWeatherWind HumidityBarometerVisibility
3:00 AM
Sep 24
75 °FThunderstorms. Passing clouds.6 mph94%29.89 "HgN/A
2:00 AM75 °FThunderstorms. Passing clouds.7 mph94%29.89 "HgN/A
1:00 AM75 °FPassing clouds.8 mph94%29.92 "Hg4 mi
12:00 AM77 °FThunderstorms. Passing clouds.8 mph89%29.95 "HgN/A
11:00 PM
Sep 23
75 °FThunderstorms. Passing clouds.7 mph94%29.95 "HgN/A
10:00 PM75 °FPassing clouds.5 mph94%29.95 "HgN/A
9:00 PM77 °FPassing clouds.8 mph89%29.95 "HgN/A
8:00 PM77 °FPassing clouds.9 mph89%29.89 "HgN/A
7:00 PM77 °FPassing clouds.10 mph89%29.86 "HgN/A
6:00 PM79 °FPassing clouds.8 mph79%29.86 "HgN/A
5:00 PM81 °FPartly sunny.12 mph79%29.86 "HgN/A
4:00 PM81 °FThunderstorms. Partly sunny.12 mph79%29.86 "HgN/A
3:00 PM82 °FThunderstorms. Partly sunny.13 mph79%29.86 "HgN/A
2:00 PM84 °FBroken clouds.9 mph79%29.89 "HgN/A
1:00 PM81 °FBroken clouds.9 mph79%29.92 "HgN/A
12:00 PM81 °FBroken clouds.9 mph84%29.95 "HgN/A
11:00 AM81 °FThunderstorms. Broken clouds.5 mph84%29.95 "HgN/A
10:00 AM79 °FThunderstorms. Broken clouds.2 mph89%29.98 "Hg5 mi
9:00 AM77 °FThunderstorms. Broken clouds.5 mph94%29.98 "Hg5 mi
8:00 AM75 °FThunderstorms. Mostly cloudy.No wind94%29.95 "Hg4 mi
7:00 AM75 °FDrizzle. Mostly cloudy.2 mph94%29.95 "Hg5 mi
6:00 AM77 °FThunderstorms. Passing clouds.No wind94%29.89 "HgN/A
5:00 AM77 °FThunderstorms. Passing clouds.5 mph94%29.89 "HgN/A
4:00 AM77 °FThunderstorms. Passing clouds.5 mph94%29.89 "HgN/A
Weather by CustomWeather, © 2014

See weather overviewHow to use our weather pages